OneWeb SL0561

operational
NORAD ID: 56710 Int'l Des: 2023-068 Owner: ONEWEBN Country: UK Constellation: oneweb
LEOCIRCULARPOLARONEWEB_TYPE

About OneWeb SL0561

Description loading...

Live Position

Loading 3D Globe...

Upcoming Passes

Altitude History

Altitude vs Time

uPlot chart will show altitude changes over time

Two-Line Element Set

1 56710U 23068A 25278.50344618 .00000070 00000-0 14077-3 0 9992
2 56710 87.9235 325.2427 0001447 90.0193 270.1106 13.20772794115880
Epoch: Oct 5, 2025 • Age: 20 hours

Current Status

Altitude 1211.7 km
Velocity 7.25 km/s
Sub-Earth Point -87.63°S, 76.14°E
Launch Date May 20, 2023
Age 2.3 years
Type internet

Technical Details

Classification Payload
Mass 148.00 kg
Dry Mass 140.00 kg
Total Mass 148.00 kg
Length 1.30 m
Diameter 1.00 m
Span 5.00 m
Shape Trapezoid+2 pan
Manufacturer ONEWUS
Bus Type ARROW
Phase Status In Orbit
Owner/State ONEWEBN/UK

Large Constellations

Loading constellations...